DW9080 Weather Reports


time (UTC)temp
C
wind
direction
speed
KPH
gust
KPH
rain 1hr
cm
rain 24hr
cm
rain mn
cm
humidity
%
barometer
mb
20260504090119 13 167 0.0 0.0 0.00 0.00 0.00 86 1007.5
20260504081555 13 151 0.0 0.0 0.00 0.00 0.00 86 1007.8
20260504081053 13 166 0.0 0.0 0.00 0.00 0.00 86 1007.9
20260504080556 13 166 0.0 0.0 0.00 0.00 0.00 86 1007.8
20260504050550 15 233 0.0 1.6 0.00 0.00 0.00 78 1009.4
20260504045536 16 236 0.0 1.6 0.00 0.00 0.00 76 1009.4
20260504045032 16 233 0.0 0.0 0.00 0.00 0.00 76 1009.4
20260504044540 16 222 0.0 0.0 0.00 0.00 0.00 75 1009.3
20260504044033 16 248 0.0 1.6 0.00 0.00 0.00 74 1009.1
20260504043531 16 235 0.0 1.6 0.00 0.00 0.00 74 1009.1
20260504043035 16 235 0.0 0.0 0.00 0.00 0.00 73 1009.1
20260504042519 16 226 0.0 0.0 0.00 0.00 0.00 73 1009.1
20260504042018 16 227 0.0 0.0 0.00 0.00 0.00 72 1009.0
20260504041518 17 224 0.0 1.6 0.00 0.00 0.00 72 1009.0
20260504041018 17 228 0.0 1.6 0.00 0.00 0.00 71 1008.9
20260504040521 17 229 0.0 1.6 0.00 0.00 0.00 71 1008.8
20260504040018 17 256 0.0 1.6 0.00 0.00 0.00 70 1008.7
20260504035517 17 252 0.0 0.0 0.00 0.00 0.00 70 1008.5
20260504035017 17 256 0.0 0.0 0.00 0.00 0.00 69 1008.3
20260504034522 17 257 0.0 0.0 0.00 0.00 0.00 69 1008.2
20260504034017 17 259 0.0 0.0 0.00 0.00 0.00 68 1008.1
20260504033517 17 259 0.0 0.0 0.00 0.00 0.00 67 1007.9
20260504033018 17 259 0.0 0.0 0.00 0.00 0.00 67 1007.9
20260504032516 18 259 0.0 0.0 0.00 0.00 0.00 67 1007.7
20260504032015 18 258 0.0 0.0 0.00 0.00 0.00 66 1007.7
20260504031516 18 236 0.0 9.7 0.00 0.00 0.00 66 1007.5
20260504031015 18 79 3.2 9.7 0.00 0.00 0.00 65 1007.2
20260504030515 18 72 0.0 4.8 0.00 0.00 0.00 64 1006.9
20260504030015 19 43 0.0 4.8 0.00 0.00 0.00 64 1006.7
20260504025515 19 74 0.0 1.6 0.00 0.00 0.00 64 1006.6
20260504025014 19 67 0.0 1.6 0.00 0.00 0.00 63 1006.6
20260504024519 19 70 0.0 1.6 0.00 0.00 0.00 62 1006.4
20260504024014 20 53 0.0 4.8 0.00 0.00 0.00 62 1006.2
20260504023514 20 60 0.0 1.6 0.00 0.00 0.00 61 1006.1
20260504023014 20 69 0.0 1.6 0.00 0.00 0.00 61 1006.2
20260504022504 20 64 0.0 6.4 0.00 0.00 0.00 60 1006.0
20260504022100 20 58 0.0 6.4 0.00 0.00 0.00 60 1006.0
20260504021500 20 71 0.0 6.4 0.00 0.00 0.00 59 1005.9
20260504021100 20 61 0.0 6.4 0.00 0.00 0.00 58 1005.8
20260504020600 21 154 0.0 1.6 0.00 0.00 0.00 57 1005.7
20260504020100 21 145 0.0 1.6 0.00 0.00 0.00 56 1005.4
20260504015600 21 83 0.0 1.6 0.00 0.00 0.00 55 1005.2
20260504015103 21 80 0.0 1.6 0.00 0.00 0.00 53 1005.1
20260504014603 22 69 0.0 1.6 0.00 0.00 0.00 52 1005.0
20260504014058 22 44 0.0 1.6 0.00 0.00 0.00 50 1004.8
20260504013600 23 117 0.0 1.6 0.00 0.00 0.00 47 1004.7
20260504013501 23 64 0.0 1.6 0.00 0.00 0.00 47 1004.8
20260504013059 23 56 0.0 8.0 0.00 0.00 0.00 45 1004.8
20260504012558 25 69 0.0 8.0 0.00 0.00 0.00 42 1004.7
20260504012058 26 262 0.0 1.6 0.00 0.00 0.00 29 1004.6
20260504011559 26 262 0.0 1.6 0.00 0.00 0.00 28 1004.5
20260504011059 26 253 0.0 1.6 0.00 0.00 0.00 28 1004.2
20260504010557 26 252 0.0 1.6 0.00 0.00 0.00 28 1004.1
20260504005558 27 253 0.0 1.6 0.00 0.00 0.00 28 1004.0
20260504005100 27 243 0.0 1.6 0.00 0.00 0.00 28 1003.9
20260504004557 27 278 0.0 1.6 0.00 0.00 0.00 28 1003.8
20260504004058 27 248 0.0 1.6 0.00 0.00 0.00 27 1003.7
20260504003559 27 255 0.0 1.6 0.00 0.00 0.00 27 1003.8
20260504003056 28 236 0.0 1.6 0.00 0.00 0.00 26 1003.7
20260504002538 28 250 0.0 1.6 0.00 0.00 0.00 26 1003.7
20260504002038 28 248 0.0 1.6 0.00 0.00 0.00 25 1003.7
20260504001559 28 243 0.0 1.6 0.00 0.00 0.00 25 1003.6
20260504001039 27 290 0.0 17.7 0.00 0.00 0.00 26 1003.5
20260504000539 28 253 0.0 17.7 0.00 0.00 0.00 25 1003.5
20260504000041 28 276 0.0 1.6 0.00 0.00 0.00 24 1003.5
20260503235521 28 252 0.0 1.6 0.00 0.00 0.00 24 1003.4
20260503235019 28 274 0.0 3.2 0.00 0.00 0.00 24 1003.4
20260503234519 28 261 0.0 3.2 0.00 0.00 0.00 25 1003.3
20260503234023 28 263 0.0 1.6 0.00 0.00 0.00 24 1003.3
20260503233517 28 250 0.0 1.6 0.00 0.00 0.00 25 1003.5
20260503233017 28 260 0.0 1.6 0.00 0.00 0.00 25 1003.5
20260503232603 28 231 0.0 1.6 0.00 0.00 0.00 25 1003.5
20260503232059 28 226 0.0 1.6 0.00 0.00 0.00 24 1003.5
20260503231559 28 228 0.0 1.6 0.00 0.00 0.00 23 1003.5
20260503231059 28 235 0.0 1.6 0.00 0.00 0.00 24 1003.4
20260503230601 28 243 0.0 1.6 0.00 0.00 0.00 23 1003.5
20260503230059 29 298 0.0 3.2 0.00 0.00 0.00 24 1003.4
20260503225540 28 259 0.0 3.2 0.00 0.00 0.00 24 1003.6
20260503225039 28 219 0.0 16.1 0.00 0.00 0.00 24 1003.6
20260503224538 28 253 3.2 19.3 0.00 0.00 0.00 24 1003.6
20260503224039 28 260 4.8 20.9 0.00 0.00 0.00 25 1003.6
20260503223539 28 229 0.0 1.6 0.00 0.00 0.00 24 1003.7
20260503223040 29 246 0.0 1.6 0.00 0.00 0.00 23 1003.7
20260503222517 28 256 0.0 1.6 0.00 0.00 0.00 23 1003.8
20260503222017 28 249 0.0 1.6 0.00 0.00 0.00 24 1003.9
20260503221528 28 225 0.0 1.6 0.00 0.00 0.00 23 1003.9
20260503221016 29 214 0.0 9.7 0.00 0.00 0.00 22 1003.9
20260503220515 29 242 1.6 9.7 0.00 0.00 0.00 24 1003.9
20260503220017 29 250 0.0 3.2 0.00 0.00 0.00 23 1003.8
20260503215615 29 224 0.0 1.6 0.00 0.00 0.00 23 1004.0
20260503215056 28 243 0.0 1.6 0.00 0.00 0.00 26 1003.9
20260503214554 28 219 0.0 1.6 0.00 0.00 0.00 26 1004.1
20260503214054 28 253 0.0 1.6 0.00 0.00 0.00 28 1004.2
20260503213556 28 183 0.0 9.7 0.00 0.00 0.00 25 1004.3
20260503213052 28 266 0.0 9.7 0.00 0.00 0.00 26 1004.3
20260503212552 28 250 0.0 1.6 0.00 0.00 0.00 26 1004.4
20260503212036 28 263 0.0 1.6 0.00 0.00 0.00 26 1004.5
20260503211542 27 263 0.0 1.6 0.00 0.00 0.00 27 1004.5
20260503211031 28 229 0.0 1.6 0.00 0.00 0.00 27 1004.7
20260503210531 28 226 0.0 1.6 0.00 0.00 0.00 28 1004.7
20260503210030 28 231 0.0 1.6 0.00 0.00 0.00 27 1004.9
20260503205529 29 256 0.0 1.6 0.00 0.00 0.00 27 1004.8
20260503205022 29 238 0.0 1.6 0.00 0.00 0.00 28 1004.9
20260503204515 29 251 0.0 1.6 0.00 0.00 0.00 28 1005.1
20260503204014 29 297 0.0 8.0 0.00 0.00 0.00 27 1005.1
20260503203514 28 233 0.0 8.0 0.00 0.00 0.00 28 1005.3
20260503203015 28 252 0.0 1.6 0.00 0.00 0.00 29 1005.4
20260503202518 28 256 0.0 1.6 0.00 0.00 0.00 27 1005.3
20260503202012 28 200 0.0 1.6 0.00 0.00 0.00 29 1005.5
20260503201524 28 239 0.0 1.6 0.00 0.00 0.00 29 1005.6
20260503201008 28 243 0.0 19.3 0.00 0.00 0.00 29 1005.7
20260503200507 28 276 4.8 20.9 0.00 0.00 0.00 31 1005.7
20260503200007 28 257 0.0 1.6 0.00 0.00 0.00 33 1005.8
20260503195506 27 260 0.0 1.6 0.00 0.00 0.00 32 1005.8
20260503195004 27 243 0.0 1.6 0.00 0.00 0.00 33 1005.9
20260503194504 28 235 0.0 1.6 0.00 0.00 0.00 35 1006.0
20260503194003 27 284 0.0 1.6 0.00 0.00 0.00 34 1006.0
20260503193502 27 207 0.0 1.6 0.00 0.00 0.00 35 1006.2
20260503193001 27 267 0.0 1.6 0.00 0.00 0.00 37 1006.2
20260503192600 27 49 0.0 1.6 0.00 0.00 0.00 36 1006.2
20260503192102 27 250 0.0 1.6 0.00 0.00 0.00 37 1006.3
20260503191601 27 239 0.0 1.6 0.00 0.00 0.00 37 1006.5
20260503191059 27 266 0.0 17.7 0.00 0.00 0.00 37 1006.6
20260503190556 27 268 0.0 9.7 0.00 0.00 0.00 38 1006.4
20260503190055 27 249 0.0 1.6 0.00 0.00 0.00 39 1006.6
20260503185553 27 259 0.0 1.6 0.00 0.00 0.00 40 1006.7
20260503185036 27 262 0.0 0.0 0.00 0.00 0.00 42 1006.8
20260503184534 26 236 0.0 1.6 0.00 0.00 0.00 43 1006.9
20260503184033 26 163 0.0 1.6 0.00 0.00 0.00 42 1007.1
20260503183532 26 261 0.0 1.6 0.00 0.00 0.00 44 1007.2
20260503183037 25 262 0.0 1.6 0.00 0.00 0.00 45 1007.3
20260503182529 25 240 0.0 1.6 0.00 0.00 0.00 45 1007.4
20260503182011 25 258 0.0 3.2 0.00 0.00 0.00 45 1007.4
20260503181524 25 329 0.0 1.6 0.00 0.00 0.00 45 1007.4
20260503181010 25 245 0.0 1.6 0.00 0.00 0.00 46 1007.6
20260503180510 25 245 0.0 1.6 0.00 0.00 0.00 47 1007.6
20260503180009 24 245 0.0 1.6 0.00 0.00 0.00 47 1007.7
20260503175508 25 256 0.0 1.6 0.00 0.00 0.00 46 1007.8
20260503175050 24 276 0.0 1.6 0.00 0.00 0.00 49 1007.8
20260503174555 24 245 0.0 1.6 0.00 0.00 0.00 49 1007.9
20260503174049 23 251 0.0 1.6 0.00 0.00 0.00 51 1008.0
20260503173548 23 250 0.0 1.6 0.00 0.00 0.00 54 1008.0
20260503173055 23 219 0.0 1.6 0.00 0.00 0.00 55 1008.1
20260503172548 23 252 0.0 1.6 0.00 0.00 0.00 56 1008.2
20260503172027 22 248 0.0 1.6 0.00 0.00 0.00 57 1008.3
20260503171527 22 250 0.0 1.6 0.00 0.00 0.00 57 1008.4
20260503171027 22 233 0.0 1.6 0.00 0.00 0.00 56 1008.5
20260503170527 23 248 0.0 0.0 0.00 0.00 0.00 56 1008.5
20260503150552 17 229 0.0 1.6 0.00 0.00 0.00 77 1009.7
20260503131019 13 240 0.0 0.0 0.00 0.00 0.00 90 1008.5
20260503130517 13 241 0.0 0.0 0.00 0.00 0.00 91 1008.4
20260503110533 -17 0.0 0.0 0.00 0.00 0.00 1007.2